Temp
63 63 64 64 64 64 64 64 64 64 64 64 64 64 64 64 64 75 78 76 77 72 70 83 83 83 83 78 78 78 70 67 68 68 72 76 74 78 79 77 79 78 77 72 74
63 63 63 63 63 63 64 64 63 63 63 63 64 64 64 64 75 77 73 73 72 71 81 80 79 80 79 76 77 74 69 70 75 76 73 75 74 76 74 76 75 73 72 72 74
62 62 62 63 63 63 63 63 63 63 63 63 63 63 63 67 75 77 71 73 71 74 82 82 81 79 74 76 74 73 69 73 73 74 74 74 72 76 74 72 75 74 73 69 70
62 62 62 62 62 63 63 63 63 63 63 63 63 63 63 77 66 77 70 72 71 81 81 79 78 74 71 70 73 67 71 72 71 71 70 70 75 72 73 71 68 68 67 68 67
61 61 61 61 61 62 63 63 63 63 62 63 63 63 74 74 76 76 69 70 79 79 78 77 75 74 69 72 71 68 71 70 71 69 70 70 69 71 70 68 67 65 65 65 65
61 60 60 61 61 61 62 62 63 62 62 63 63 62 73 67 77 80 76 75 80 79 78 78 76 77 72 70 68 70 69 70 71 70 70 66 69 67 69 66 64 63 63 62 61
60 60 60 60 61 61 61 62 62 62 62 63 63 70 70 72 79 79 76 76 77 79 75 78 78 74 73 67 70 68 64 70 70 70 67 68 62 62 66 65 63 62 62 60 59
60 60 60 60 60 61 61 62 62 61 62 63 63 72 67 73 80 74 77 74 77 77 75 76 77 73 69 70 67 64 65 60 69 67 65 65 61 67 66 64 64 63 62 59 58
60 60 60 60 60 60 60 61 61 62 63 64 67 68 66 68 69 76 77 72 73 74 73 74 74 69 66 62 60 61 57 61 63 68 64 62 63 63 65 64 64 64 62 60 59
60 60 60 60 60 60 60 61 63 62 64 68 70 62 68 65 68 70 74 74 70 70 68 69 68 63 63 59 53 59 58 61 60 64 63 62 62 62 62 63 64 63 61 59 58
59 59 60 60 60 61 63 66 62 61 62 66 65 67 65 66 70 67 72 70 71 68 60 63 59 55 60 63 65 65 60 60 65 66 60 62 63 67 62 61 62 61 60 58 56
60 59 60 60 60 61 65 64 64 63 58 68 66 66 68 70 61 64 70 64 62 57 62 55 52 63 67 63 62 61 56 57 63 65 57 60 60 66 66 60 62 61 59 57 54
59 59 59 59 59 59 64 64 68 68 58 63 66 64 66 66 64 63 66 65 60 57 57 56 62 64 62 57 55 57 55 56 57 60 58 56 54 58 65 60 55 57 58 56 54
59 59 59 59 55 59 56 64 68 67 50 58 56 61 62 65 58 72 68 65 60 56 59 57 65 58 57 54 56 51 62 58 56 53 47 57 45 58 62 50 50 51 52 53 53
59 59 59 60 58 57 62 63 58 56 32 58 55 63 61 60 60 57 66 61 56 55 57 56 54 53 52 56 58 55 58 56 55 51 51 52 45 54 56 48 49 50 50 52 51
58 58 58 57 56 59 60 60 56 40 32 51 55 52 52 57 54 56 57 62 61 58 58 56 57 58 58 55 58 56 52 50 50 50 39 49 48 51 53 52 54 50 50 50 50
58 58 57 59 54 57 59 53 40 32 50 50 49 52 53 51 51 53 51 51 51 44 46 53 53 56 56 51 52 53 49 39 36 35 35 49 48 52 58 54 56 48 48 49 50
58 57 57 59 57 59 55 46 31 45 49 52 51 50 48 53 51 50 50 49 55 55 52 48 45 53 55 55 51 48 50 40 30 33 40 42 40 51 48 53 55 52 50 49 48
57 58 57 59 57 57 49 38 36 47 55 49 49 46 47 49 51 49 49 51 55 55 47 49 48 54 56 58 58 48 43 51 34 32 34 45 49 46 45 45 50 48 47 47 47
57 55 57 61 58 53 45 41 43 54 55 53 46 51 47 48 45 46 49 56 53 58 59 54 44 50 51 53 55 52 54 38 35 29 30 44 46 47 39 41 45 45 45 46 47
54 49 62 60 57 48 39 42 46 54 55 49 50 50 51 50 48 44 48 56 57 55 56 52 48 42 46 45 46 44 44 47 47 43 36 37 45 58 55 47 45 46 46 46 46
52 43 56 56 43 46 40 46 47 47 53 49 46 48 47 50 46 44 44 53 58 53 45 52 44 38 43 51 53 54 49 48 40 36 41 40 44 51 52 53 49 48 47 47 48
45 48 52 53 39 40 48 48 50 47 47 45 44 46 48 43 37 41 45 55 54 50 48 48 35 33 34 43 45 43 48 50 49 42 37 35 43 46 48 50 51 49 48 48 49
44 40 46 45 49 47 43 42 43 51 49 49 46 47 44 41 43 40 41 50 51 52 45 47 36 35 39 45 47 38 43 45 44 36 39 41 46 45 46 47 48 49 49 49 49
43 42 44 37 41 42 44 40 40 40 46 48 42 44 42 37 39 38 44 42 41 44 43 43 32 36 40 43 39 40 42 43 40 44 40 45 46 53 52 49 50 50 50 48 47
39 38 40 39 41 42 42 39 38 41 41 40 40 42 43 38 41 36 41 40 39 37 38 38 33 35 34 40 37 32 40 44 45 45 47 48 48 54 58 55 53 50 49 47 47
47 41 39 38 38 36 37 40 40 43 41 42 43 43 40 41 41 39 39 38 38 35 35 33 33 32 31 34 30 27 34 40 44 47 48 41 47 46 45 47 50 49 49 47 48
MSLP
1018.64 1018.42 1018.51 1018.38 1018.21 1018.04 1017.91 1017.79 1017.57 1017.37 1017.16 1016.95 1016.70 1016.43 1016.21 1015.90 1015.33 1015.10 1014.01 1014.16 1013.94 1014.09 1014.12 1013.52 1013.11 1012.83 1012.57 1012.46 1012.55 1012.30 1011.14 1010.09 1010.17 1010.45 1010.33 1011.47 1011.54 1012.15 1012.53 1012.47 1012.93 1013.66 1014.21 1015.69 1016.08
1018.72 1018.63 1018.53 1018.48 1018.38 1018.24 1018.02 1017.89 1017.76 1017.62 1017.32 1017.08 1016.83 1016.52 1016.22 1015.85 1015.00 1014.22 1014.35 1014.18 1014.18 1014.24 1013.82 1013.26 1012.79 1012.72 1012.24 1012.44 1012.46 1011.92 1011.18 1010.48 1010.98 1010.89 1011.05 1011.65 1011.92 1012.17 1012.63 1012.77 1013.36 1014.52 1015.52 1016.16 1016.26
1018.71 1018.68 1018.61 1018.49 1018.52 1018.35 1018.23 1018.10 1017.95 1017.69 1017.48 1017.16 1016.77 1016.35 1015.98 1015.60 1014.57 1013.83 1014.28 1014.27 1014.33 1014.26 1013.74 1013.37 1013.00 1012.73 1012.37 1012.53 1012.44 1012.17 1011.45 1011.56 1011.84 1012.00 1012.15 1012.15 1012.52 1012.83 1012.90 1013.05 1013.63 1014.37 1015.45 1016.60 1016.76
1018.73 1018.72 1018.67 1018.59 1018.49 1018.53 1018.32 1018.17 1018.03 1017.86 1017.50 1017.19 1016.72 1016.22 1015.73 1015.06 1014.36 1014.15 1014.30 1014.30 1014.36 1014.08 1013.66 1013.38 1013.09 1012.67 1012.47 1012.33 1012.61 1012.52 1012.33 1012.42 1012.55 1012.92 1013.09 1012.93 1012.87 1013.09 1013.52 1014.33 1015.43 1016.21 1016.74 1017.07 1017.38
1018.73 1018.65 1018.70 1018.59 1018.44 1018.50 1018.42 1018.16 1017.97 1017.83 1017.57 1017.22 1016.82 1016.33 1015.43 1014.55 1013.69 1014.18 1014.41 1014.49 1014.26 1014.12 1013.72 1013.42 1013.01 1012.79 1012.59 1012.50 1012.87 1012.68 1012.49 1012.99 1013.13 1013.49 1013.55 1013.70 1013.49 1013.57 1013.98 1015.35 1016.31 1016.99 1017.40 1017.77 1018.15
1018.66 1018.52 1018.61 1018.54 1018.33 1018.33 1018.31 1018.15 1018.00 1017.76 1017.56 1017.27 1016.87 1016.54 1015.65 1014.45 1013.77 1013.89 1014.22 1014.45 1014.07 1013.99 1013.74 1013.63 1013.16 1013.18 1012.99 1013.02 1013.16 1013.05 1013.11 1012.99 1013.17 1013.34 1013.61 1013.82 1013.52 1014.26 1014.48 1015.81 1016.60 1017.26 1017.81 1018.38 1018.90
1018.55 1018.49 1018.50 1018.48 1018.28 1018.18 1018.19 1018.02 1017.90 1017.77 1017.47 1017.13 1016.92 1016.38 1015.25 1013.95 1013.66 1013.92 1014.20 1014.22 1014.35 1014.08 1013.88 1013.82 1013.76 1013.70 1013.47 1013.43 1013.66 1013.50 1013.19 1012.53 1012.49 1012.98 1013.40 1013.93 1013.70 1013.78 1014.87 1015.93 1016.59 1017.28 1017.98 1018.70 1019.24
1018.28 1018.36 1018.40 1018.37 1018.26 1018.11 1018.04 1017.91 1017.75 1017.58 1017.37 1017.03 1016.85 1016.20 1014.55 1014.17 1013.88 1014.20 1014.13 1014.31 1014.50 1014.57 1014.52 1014.44 1014.29 1014.10 1014.05 1014.21 1013.86 1013.44 1013.06 1012.10 1011.69 1012.79 1013.50 1013.86 1012.49 1013.29 1014.91 1015.70 1016.18 1017.01 1017.80 1018.75 1019.47
1017.85 1018.10 1018.16 1018.13 1018.08 1018.04 1017.87 1017.71 1017.60 1017.41 1017.17 1017.05 1016.61 1016.09 1014.37 1014.51 1014.29 1013.92 1014.13 1014.07 1014.48 1014.73 1014.86 1014.75 1014.45 1014.12 1014.41 1013.84 1013.28 1012.92 1011.88 1011.37 1011.63 1012.42 1012.95 1013.46 1012.25 1013.67 1014.81 1015.36 1015.74 1016.63 1017.54 1018.50 1019.32
1017.42 1017.67 1017.71 1017.89 1017.90 1017.93 1017.76 1017.47 1017.14 1017.32 1016.99 1016.74 1016.34 1016.09 1014.24 1013.93 1014.12 1014.11 1014.33 1014.35 1014.27 1014.61 1014.75 1014.62 1014.26 1013.98 1013.63 1013.25 1011.78 1011.05 1011.23 1011.28 1011.40 1012.04 1012.65 1012.56 1012.38 1013.35 1014.44 1014.93 1015.29 1016.20 1017.26 1018.23 1019.16
1016.87 1017.21 1017.45 1017.51 1017.66 1017.84 1017.57 1017.05 1017.19 1016.71 1016.17 1014.56 1014.14 1013.54 1013.82 1014.48 1014.35 1014.34 1014.23 1014.33 1014.22 1014.30 1014.03 1014.29 1013.84 1012.51 1012.07 1012.45 1011.82 1011.25 1011.34 1011.01 1011.04 1011.90 1012.55 1012.08 1011.86 1012.06 1013.62 1014.59 1015.03 1015.97 1017.04 1018.11 1019.25
1016.36 1016.64 1016.97 1017.28 1017.48 1017.63 1017.56 1016.49 1016.25 1016.42 1014.95 1013.81 1013.71 1013.52 1013.58 1013.85 1014.03 1014.28 1014.47 1014.21 1014.14 1013.50 1013.75 1014.35 1012.90 1012.01 1012.19 1012.38 1012.10 1011.98 1011.81 1011.46 1011.42 1011.96 1013.01 1012.02 1011.42 1011.61 1012.31 1013.65 1014.56 1015.64 1016.85 1018.09 1019.54
1015.87 1016.20 1016.58 1016.85 1017.27 1017.73 1016.89 1016.38 1016.35 1016.12 1015.01 1012.74 1012.60 1012.39 1012.49 1013.42 1012.82 1013.18 1013.91 1013.49 1013.53 1013.31 1013.09 1012.31 1011.36 1011.78 1012.16 1012.53 1012.50 1012.21 1011.96 1011.86 1011.90 1012.23 1012.93 1012.36 1010.88 1010.85 1011.38 1013.37 1015.09 1016.11 1016.97 1018.18 1019.30
1015.55 1015.80 1016.07 1016.62 1017.65 1017.18 1016.74 1016.32 1016.38 1016.44 1015.06 1012.02 1012.26 1011.55 1012.18 1012.64 1012.26 1012.10 1012.85 1012.93 1013.32 1012.71 1012.90 1012.11 1011.56 1012.12 1012.14 1012.41 1012.83 1012.06 1012.00 1012.53 1012.69 1013.04 1012.25 1012.46 1009.64 1009.69 1010.39 1013.11 1014.85 1016.22 1017.35 1018.37 1019.44
1015.02 1015.49 1015.76 1016.04 1016.21 1016.58 1016.03 1016.35 1016.94 1017.07 1014.68 1011.44 1012.02 1012.79 1012.32 1012.08 1012.18 1012.90 1012.93 1013.02 1012.24 1012.39 1012.75 1010.99 1011.66 1012.01 1012.00 1011.83 1012.72 1012.37 1012.82 1013.21 1013.37 1013.33 1012.89 1012.34 1012.25 1009.58 1010.63 1012.44 1013.69 1015.55 1017.08 1018.37 1019.70
1014.60 1014.93 1015.27 1015.78 1015.93 1015.74 1015.89 1016.34 1017.06 1016.95 1013.70 1011.59 1011.97 1012.25 1012.48 1012.32 1012.76 1013.21 1013.38 1013.30 1012.88 1012.46 1012.11 1011.95 1012.63 1012.33 1012.04 1012.61 1012.86 1013.47 1013.87 1014.41 1014.59 1014.12 1012.31 1012.05 1011.99 1008.39 1009.79 1010.58 1012.39 1015.04 1016.70 1018.03 1019.54
1014.14 1014.39 1014.90 1014.69 1015.00 1015.75 1015.83 1016.36 1016.18 1014.63 1012.64 1011.17 1011.31 1011.77 1011.73 1012.01 1012.45 1012.70 1012.75 1012.51 1011.95 1012.18 1011.54 1011.82 1011.68 1012.28 1012.52 1012.94 1013.80 1013.64 1013.91 1014.33 1014.46 1014.04 1011.74 1011.29 1010.90 1008.66 1009.66 1010.89 1012.01 1014.32 1016.32 1017.79 1019.00
1013.66 1013.95 1014.08 1014.17 1014.61 1015.29 1015.93 1015.84 1013.70 1011.58 1011.10 1011.05 1010.95 1011.38 1011.44 1011.50 1011.84 1012.28 1012.07 1011.46 1011.43 1010.82 1010.38 1010.02 1009.90 1010.76 1011.41 1010.94 1011.66 1012.71 1012.98 1013.19 1013.47 1013.39 1012.03 1012.09 1010.29 1009.41 1010.81 1011.49 1012.56 1014.47 1016.34 1017.85 1019.07
1013.11 1013.55 1013.23 1013.55 1014.43 1014.99 1015.05 1013.52 1012.23 1010.88 1010.11 1010.55 1011.29 1010.76 1010.79 1011.35 1011.61 1011.59 1011.08 1010.09 1009.77 1010.40 1010.23 1009.39 1009.44 1009.88 1010.63 1010.95 1011.37 1012.21 1012.39 1013.22 1014.24 1014.46 1013.17 1010.52 1009.68 1010.24 1011.37 1012.33 1013.08 1014.51 1016.20 1017.60 1018.72
1012.79 1012.70 1012.10 1012.98 1013.92 1014.51 1013.43 1012.11 1011.25 1010.37 1009.86 1010.23 1010.05 1009.90 1009.33 1010.31 1011.11 1011.22 1010.30 1008.79 1009.00 1008.99 1009.62 1009.62 1010.00 1010.56 1011.37 1011.81 1011.45 1011.52 1012.00 1013.50 1014.44 1013.24 1011.57 1008.85 1008.43 1008.58 1010.60 1011.84 1013.02 1014.31 1015.43 1016.86 1018.28
1012.69 1012.18 1010.40 1011.80 1013.32 1013.56 1011.94 1011.32 1010.64 1010.33 1010.15 1010.53 1009.64 1009.29 1009.23 1009.46 1010.38 1010.20 1009.60 1008.73 1008.61 1008.79 1009.87 1010.66 1010.93 1011.72 1012.07 1010.99 1010.56 1011.87 1011.61 1011.57 1011.70 1011.30 1010.08 1008.84 1007.39 1007.10 1008.10 1010.15 1011.63 1013.22 1014.66 1016.03 1017.44
1012.08 1011.66 1011.19 1011.60 1012.89 1011.61 1010.86 1010.13 1010.46 1010.02 1010.38 1010.45 1010.70 1010.32 1009.92 1009.94 1010.11 1010.22 1009.67 1008.78 1008.78 1009.30 1010.40 1010.65 1011.34 1011.15 1010.62 1010.51 1010.54 1010.14 1009.93 1010.52 1010.28 1010.28 1009.77 1009.05 1007.21 1007.82 1008.60 1009.57 1011.39 1012.89 1014.35 1015.90 1017.17
1011.95 1011.21 1011.59 1011.35 1010.93 1010.24 1009.86 1009.62 1009.82 1009.93 1009.99 1010.02 1010.28 1010.25 1010.52 1010.57 1010.88 1010.38 1010.05 1008.98 1009.44 1009.88 1010.39 1011.28 1012.04 1011.77 1011.43 1011.46 1011.35 1010.46 1009.81 1009.55 1009.64 1009.74 1008.67 1008.86 1007.41 1008.62 1009.21 1009.77 1010.98 1012.35 1013.85 1015.32 1016.70
1012.37 1011.34 1011.22 1010.94 1010.07 1009.43 1009.45 1009.13 1009.26 1009.41 1009.52 1009.55 1009.42 1010.30 1010.61 1010.49 1010.78 1010.32 1010.21 1009.87 1010.13 1010.30 1010.70 1011.56 1011.63 1011.01 1009.41 1008.43 1008.63 1009.83 1009.13 1009.29 1009.39 1009.12 1006.61 1007.07 1007.25 1008.42 1009.01 1009.63 1010.68 1011.68 1013.08 1014.48 1015.76
1012.00 1011.01 1010.79 1010.36 1009.92 1009.20 1009.37 1009.67 1009.00 1009.09 1009.18 1009.06 1009.36 1009.24 1009.83 1010.35 1010.62 1010.45 1010.50 1010.89 1011.38 1011.51 1011.71 1011.78 1011.69 1011.40 1010.08 1009.95 1009.57 1009.65 1008.94 1008.77 1008.63 1006.80 1007.59 1005.18 1006.77 1007.11 1008.02 1009.04 1009.90 1011.17 1012.74 1014.00 1015.04
1011.63 1011.68 1011.43 1010.98 1010.32 1009.79 1009.40 1009.09 1009.33 1009.41 1009.52 1009.60 1009.06 1009.46 1010.01 1010.34 1010.27 1010.19 1010.64 1011.08 1010.94 1012.12 1012.16 1012.15 1011.48 1011.56 1010.46 1010.31 1010.02 1009.99 1009.54 1008.42 1007.63 1007.03 1006.67 1006.14 1006.07 1006.85 1007.13 1008.68 1009.62 1010.63 1011.99 1013.06 1013.97
1011.17 1011.97 1011.82 1010.92 1010.32 1009.97 1009.24 1008.68 1008.86 1009.50 1009.80 1009.99 1009.79 1009.94 1010.48 1010.58 1011.17 1011.02 1011.34 1011.62 1011.79 1011.88 1012.02 1012.36 1011.92 1011.45 1010.33 1010.54 1010.68 1010.10 1007.45 1007.97 1007.03 1006.82 1006.50 1006.50 1006.29 1007.28 1008.65 1009.23 1009.78 1010.61 1011.54 1012.19 1012.86
Wind_Speed
4 5 6 7 7 7 8 8 9 9 10 12 13 13 12 13 13 5 4 4 2 3 3 2 3 1 2 2 1 2 5 5 3 5 5 6 7 4 1 3 2 2 5 5 5
4 5 6 7 7 8 8 8 8 9 10 11 12 13 12 11 6 7 5 2 1 3 4 5 4 4 3 2 1 4 4 1 1 1 3 7 4 5 5 8 7 6 6 5 4
2 3 5 6 8 8 9 9 9 9 10 11 12 13 13 10 6 4 3 1 3 3 3 2 1 3 3 2 2 1 5 3 4 2 2 4 5 3 7 9 3 3 5 5 4
4 4 4 5 6 8 8 8 9 10 10 11 13 14 15 5 5 3 3 4 2 4 3 3 3 3 4 6 2 6 3 2 1 2 3 6 3 6 7 3 5 5 4 3 4
6 5 5 5 5 7 8 9 9 10 11 12 13 14 7 5 4 5 4 4 4 3 4 3 6 3 7 3 3 7 3 3 3 4 6 3 9 9 7 4 3 4 4 4 4
8 7 7 6 5 6 7 9 10 9 11 13 12 14 6 10 4 5 5 4 3 5 4 5 3 3 4 3 6 4 4 6 6 10 8 8 10 2 5 6 5 5 4 4 4
9 8 8 7 7 6 7 8 9 10 11 12 9 6 7 10 1 5 5 1 1 3 5 2 2 6 1 3 1 3 8 10 12 13 9 8 10 12 9 9 8 6 5 3 4
9 9 8 8 7 7 7 8 8 8 10 7 4 5 8 2 1 5 6 4 3 2 1 1 1 1 4 2 3 5 5 9 7 8 5 10 11 10 10 11 9 6 5 3 3
10 9 8 8 8 7 7 8 9 7 4 4 3 4 7 3 4 6 5 5 6 4 3 3 2 2 5 6 8 9 11 10 6 11 6 12 6 9 10 11 10 8 6 4 4
10 10 9 9 8 7 8 7 5 6 4 4 3 3 8 2 3 5 4 9 4 8 6 6 6 8 9 10 11 11 14 11 12 8 10 12 15 11 11 13 13 10 8 7 5
9 10 10 9 7 5 7 5 5 6 6 9 5 3 1 3 2 4 5 9 6 8 10 10 11 16 20 18 19 13 13 15 11 3 6 14 16 14 14 12 13 12 10 8 6
10 9 11 10 7 4 5 5 4 3 10 13 15 10 6 4 4 8 7 10 9 13 14 5 17 18 15 11 16 17 16 16 14 5 5 15 19 17 14 16 15 13 11 10 8
10 10 10 10 8 3 7 8 2 3 8 10 15 11 11 13 11 14 16 9 10 14 16 19 8 8 16 10 12 16 18 15 17 3 11 15 22 24 20 11 7 9 8 9 11
11 10 10 7 7 3 5 4 1 5 8 9 9 6 6 7 12 12 19 7 9 15 16 18 19 9 12 15 13 17 16 16 15 8 11 3 13 10 12 14 14 13 12 12 11
12 11 11 18 6 6 3 8 6 4 6 2 7 3 3 14 4 4 3 5 17 10 8 7 8 14 16 16 15 9 2 8 11 14 16 18 11 6 3 13 19 17 16 14 13
12 12 11 11 2 0 9 10 4 3 9 4 5 6 7 13 2 3 8 4 1 16 16 16 4 9 9 2 12 10 7 3 3 7 14 15 17 11 11 12 14 17 18 17 16
12 12 11 6 4 8 10 4 6 7 3 8 6 8 14 11 9 8 13 14 14 10 20 18 18 6 5 7 3 13 8 4 6 7 10 1 14 15 6 5 11 21 21 20 19
12 11 8 4 9 14 4 5 8 10 17 4 4 7 10 9 8 10 9 15 22 18 11 15 11 24 18 25 14 21 18 8 7 7 5 1 11 6 5 5 6 18 19 19 19
10 6 6 6 11 9 5 11 6 9 7 7 6 8 11 9 6 12 15 15 15 25 14 11 13 4 10 16 21 12 17 9 3 2 5 8 11 3 6 7 12 18 19 19 20
4 4 11 13 14 7 9 16 9 13 1 10 16 14 14 14 13 12 12 10 21 19 20 6 10 4 6 4 10 11 11 7 5 7 8 9 12 10 11 14 16 20 21 21 19
4 4 2 19 10 4 12 11 8 14 9 10 13 15 17 11 16 11 9 8 14 8 18 11 9 4 6 14 17 10 13 10 7 9 3 4 6 4 10 19 21 20 21 21 20
4 7 6 12 10 5 17 14 3 7 15 8 4 11 15 16 12 11 14 17 9 9 13 19 4 11 13 3 11 21 14 21 7 7 7 4 8 4 4 12 16 18 18 18 19
5 3 3 4 11 15 17 15 20 12 8 9 11 10 10 8 7 10 12 5 11 13 13 11 6 4 2 5 4 10 18 17 18 1 13 7 6 1 3 7 13 16 19 18 19
3 4 5 4 6 19 16 18 20 13 18 13 7 11 12 14 12 6 11 8 10 14 14 11 6 8 14 2 7 10 18 21 18 10 18 18 11 5 7 10 14 16 18 19 20
4 5 2 4 15 15 10 2 7 7 13 16 8 19 14 8 17 18 22 6 3 6 5 12 9 12 24 5 3 5 12 21 25 30 17 25 20 12 13 14 17 16 16 19 22
2 1 2 4 1 9 19 17 18 8 4 5 10 7 17 21 14 8 16 10 8 7 9 5 7 11 18 17 10 8 13 16 26 28 27 27 19 3 13 11 14 16 17 20 21
3 1 2 2 5 4 4 10 8 11 2 4 10 11 13 10 4 5 3 4 1 7 13 10 8 7 9 5 3 7 26 18 21 25 19 24 20 5 3 7 9 12 16 20 22
Wind_Direction
11 19 5 6 8 9 9 5 4 1 356 348 343 341 334 328 304 241 275 34 16 141 280 170 211 169 226 101 353 297 245 225 195 200 207 152 196 157 81 252 116 55 30 32 6
348 352 354 353 354 352 355 355 353 348 347 342 336 333 327 325 283 269 63 28 25 172 222 217 200 195 162 136 194 260 261 210 5 197 220 167 233 167 221 197 181 147 106 32 22
305 325 335 341 338 340 341 342 341 340 337 334 329 329 325 312 278 72 41 63 127 258 281 265 156 240 220 231 178 164 271 98 176 199 283 203 223 211 247 244 334 254 96 48 51
256 279 301 313 322 323 328 330 332 332 332 330 328 325 323 269 318 84 72 129 131 283 197 177 217 234 262 238 169 251 238 250 131 182 210 226 280 234 243 60 58 55 62 79 71
252 259 269 282 301 311 318 323 325 327 325 326 325 322 308 257 276 111 122 134 167 178 221 227 246 261 255 259 226 242 210 216 205 200 231 278 248 261 220 141 117 101 97 84 64
254 253 260 269 279 294 306 314 317 322 321 321 318 313 269 263 93 132 121 140 212 215 202 223 287 275 295 258 252 17 279 251 220 226 226 232 246 198 173 154 155 153 120 87 55
250 253 258 266 273 284 295 303 311 316 318 317 309 294 256 264 68 142 157 149 218 255 225 218 249 223 144 224 214 285 276 255 238 229 233 216 238 228 136 166 163 162 146 107 65
247 251 257 265 271 279 288 296 302 309 312 326 303 268 261 49 169 180 170 126 120 99 4 110 208 142 280 115 204 254 253 262 102 167 172 203 263 149 165 181 187 180 168 154 82
239 245 252 255 266 275 282 289 290 294 292 292 247 266 262 126 197 187 193 170 129 113 80 135 200 229 175 223 245 211 264 230 254 198 153 205 250 157 182 200 203 202 192 179 148
236 235 234 248 257 272 285 272 290 271 225 238 264 244 187 216 145 160 160 170 151 147 142 188 203 222 220 210 234 247 223 251 252 170 218 211 250 162 190 211 215 203 196 192 177
231 238 238 232 236 263 291 259 225 195 210 222 175 246 154 70 168 189 162 166 147 199 208 203 216 218 224 224 252 283 284 263 256 143 261 240 252 247 193 211 216 209 203 194 174
227 232 229 228 213 186 269 263 344 356 290 235 246 248 223 196 182 180 183 185 196 209 205 180 229 239 243 272 238 247 259 258 259 229 244 265 263 256 213 217 219 216 207 191 168
225 218 231 209 169 178 234 240 326 292 263 248 219 221 207 185 216 187 182 199 214 218 201 225 230 218 222 228 226 236 244 254 260 266 242 274 267 253 237 211 222 230 209 183 180
234 223 212 189 141 176 225 221 283 319 274 247 202 229 162 185 232 202 200 184 205 226 211 248 248 206 204 227 216 246 235 248 263 258 261 165 287 281 194 208 215 203 192 183 167
225 223 196 162 144 188 92 128 88 30 251 4 119 86 170 187 69 150 220 199 227 195 178 221 190 200 218 218 200 251 78 219 238 255 274 255 264 276 162 214 210 199 190 179 169
237 221 204 199 185 178 126 128 98 181 239 197 130 165 159 201 148 113 181 236 328 245 225 268 8 224 225 111 196 128 111 110 236 260 255 238 235 261 198 229 197 186 184 171 167
222 216 202 156 202 153 145 132 197 198 200 174 182 187 203 184 201 195 185 196 199 196 230 229 227 191 185 143 151 200 177 230 235 208 256 238 221 255 176 184 188 181 180 174 165
218 212 219 207 137 155 164 225 231 211 219 95 160 169 197 179 220 199 195 218 217 229 282 216 228 199 193 215 198 201 196 195 236 213 247 63 233 233 40 90 176 174 175 172 169
203 217 219 175 161 173 216 231 225 228 182 175 151 198 199 206 254 202 225 226 221 213 215 213 238 262 182 218 212 187 222 232 22 176 280 215 239 190 163 167 168 168 172 177 174
212 222 231 162 161 195 210 240 225 223 216 183 219 200 211 196 187 194 202 220 227 214 220 269 267 177 160 184 241 208 154 164 194 215 231 243 251 232 204 190 180 179 181 178 176
216 230 223 155 152 212 230 230 234 229 207 216 235 247 236 217 207 191 239 236 204 215 195 230 245 128 153 204 185 176 202 218 207 228 249 274 236 133 201 189 186 186 184 179 177
224 222 150 153 195 215 229 237 171 202 220 210 239 260 247 219 212 210 226 231 162 147 191 211 224 225 212 106 252 220 208 205 206 186 232 291 258 120 93 177 184 187 182 180 181
231 205 234 206 215 216 232 244 229 217 200 184 207 207 211 219 215 216 224 255 160 173 184 164 201 181 235 224 207 225 219 222 228 328 222 199 245 80 141 173 180 182 181 182 179
255 223 181 222 251 222 229 229 238 219 226 212 211 208 225 231 205 212 234 220 197 199 140 160 185 225 228 145 146 201 206 208 214 225 237 234 245 193 206 182 177 182 181 182 183
218 213 338 216 235 248 233 140 223 214 216 201 209 203 200 220 231 227 232 182 199 200 172 176 220 210 246 251 78 280 228 208 210 227 215 247 234 222 202 194 191 180 177 184 187
243 230 141 297 257 241 220 239 229 220 167 261 226 179 234 237 225 209 221 204 200 172 181 192 226 217 244 244 225 232 247 230 221 231 233 245 248 53 182 182 171 178 182 192 194
143 152 288 193 223 206 224 224 225 220 211 266 275 241 225 240 179 157 79 5 47 177 190 180 204 184 239 206 147 248 227 228 230 226 233 235 242 119 116 173 199 185 190 197 200